Hondo, TX

7:26 PM CDT on March 25, 2017 (GMT -0500)
Hondo Municipal

Weather History for KHDO - January, 2013

Change the Weather History Date:

Sunday, January 6, 2013

  Actual Average Record
Temperature  
Mean Temperature 48 °F -  
Max Temperature 66 °F 61 °F 81 °F (2008)
Min Temperature 30 °F 37 °F 26 °F (2014)
Degree Days  
Heating Degree Days 17    
Moisture  
Dew Point 28 °F    
Average Humidity 61    
Maximum Humidity 96    
Minimum Humidity 18    
Precipitation  
Precipitation 0.00 in - - ()
Sea Level Pressure  
Sea Level Pressure 30.33 in    
Wind  
Wind Speed 7 mph (NNE)    
Max Wind Speed 15 mph    
Max Gust Speed 18 mph    
Visibility 9 miles    
Events      
Averages and records for this station are not official NWS values.
T = Trace of Precipitation, MM = Missing Value Source: NWS Daily Summary

Daily Weather History Graph

Daily Weather History Graph

Search for Another Location

Airport or City:

Trip Planner

Search our weather history database for the weather conditions in past years. The results will help you decide how hot, cold, wet, or windy it might be!

Date:

Astronomy

Jan. 06, 2013 Rise Set
Actual Time 7:32 AM CST 5:53 PM CST
Civil Twilight 7:06 AM CST 6:19 PM CST
Nautical Twilight 6:36 AM CST 6:48 PM CST
Astronomical Twilight 6:07 AM CST 7:17 PM CST
Moon 1:58 AM CST (1/6) 1:13 PM CST (1/6)
Length of Visible Light 11h 13m
Length of Day
10h 21m
Waning Crescent, 33% of the Moon is Illuminated
Jan 6
Waning Crescent
Jan 11
New
Jan 18
First Quarter
Jan 26
Full
Feb 3
Last Quarter

Hourly Weather History & Observations

Time (CST) Temp. Windchill Dew Point Humidity Pressure Visibility Wind Dir Wind Speed Gust Speed Precip Events Conditions
12:51 AM 34.0 °F 29.8 °F 32.0 °F 92% 30.32 in 8.0 mi NNE 4.6 mph - N/A   Clear
1:51 AM 32.0 °F 26.4 °F 30.0 °F 92% 30.31 in 8.0 mi North 5.8 mph - N/A   Clear
2:51 AM 32.0 °F 24.8 °F 30.9 °F 96% 30.31 in 7.0 mi North 8.1 mph - N/A   Clear
3:51 AM 32.0 °F 26.4 °F 30.0 °F 92% 30.31 in 7.0 mi North 5.8 mph - N/A   Clear
4:51 AM 30.9 °F 23.5 °F 30.0 °F 96% 30.31 in 6.0 mi North 8.1 mph - N/A   Clear
5:51 AM 30.9 °F 27.5 °F 30.0 °F 96% 30.33 in 7.0 mi North 3.5 mph - N/A   Clear
6:51 AM 30.0 °F 24.1 °F 28.0 °F 92% 30.35 in 6.0 mi North 5.8 mph - N/A   Clear
7:51 AM 30.9 °F 24.3 °F 28.9 °F 92% 30.38 in 10.0 mi NNW 6.9 mph - N/A   Clear
8:51 AM 39.0 °F 35.7 °F 35.1 °F 86% 30.39 in 10.0 mi North 4.6 mph - N/A   Clear
9:51 AM 50.0 °F - 35.1 °F 57% 30.40 in 10.0 mi NNE 15.0 mph - N/A   Clear
10:51 AM 55.4 °F - 28.4 °F 36% 30.41 in 10.0 mi NNE 11.5 mph 18.4 mph N/A   Clear
11:51 AM 60.1 °F - 27.0 °F 28% 30.38 in 10.0 mi NE 13.8 mph - N/A   Clear
12:51 PM 62.1 °F - 26.1 °F 25% 30.34 in 10.0 mi NNE 8.1 mph - N/A   Clear
1:51 PM 64.0 °F - 25.0 °F 23% 30.30 in 10.0 mi NNE 9.2 mph - N/A   Clear
2:51 PM 64.9 °F - 23.0 °F 20% 30.28 in 10.0 mi NE 9.2 mph - N/A   Clear
3:51 PM 66.0 °F - 21.0 °F 18% 30.27 in 10.0 mi North 9.2 mph - N/A   Unknown
4:51 PM 63.0 °F - 21.9 °F 21% 30.28 in 10.0 mi NE 10.4 mph - N/A   Clear
5:51 PM 54.0 °F - 26.1 °F 34% 30.30 in 10.0 mi ENE 5.8 mph - N/A   Clear
6:51 PM 50.0 °F - 27.0 °F 41% 30.32 in 10.0 mi ENE 6.9 mph - N/A   Clear
7:51 PM 45.0 °F 41.2 °F 27.0 °F 49% 30.35 in 10.0 mi ENE 6.9 mph - N/A   Clear
8:51 PM 39.9 °F 35.8 °F 28.0 °F 63% 30.34 in 10.0 mi NE 5.8 mph - N/A   Clear
9:51 PM 39.9 °F 35.1 °F 28.9 °F 65% 30.34 in 10.0 mi NNE 6.9 mph - N/A   Clear
10:51 PM 36.0 °F 30.3 °F 28.0 °F 73% 30.34 in 10.0 mi NE 6.9 mph - N/A   Clear
11:51 PM 33.1 °F - 27.0 °F 78% 30.33 in 10.0 mi North - - N/A   Clear